Total_Precipitation_Accumulation
0.62 0.59 0.54 0.50 0.47 0.47 0.45 0.40 0.35 0.30 0.28 0.28 0.26 0.23 0.23 0.22 0.22 0.19 0.16 0.15 0.15 0.18 0.27 0.44 0.64 0.82 0.97 1.12 1.22 1.13 1.09 0.95 0.70 0.56 0.54 0.63 0.69 0.76 0.77 0.82 0.83 0.72 0.68
0.59 0.60 0.58 0.55 0.50 0.45 0.43 0.41 0.37 0.32 0.27 0.25 0.22 0.21 0.20 0.20 0.21 0.22 0.20 0.21 0.19 0.19 0.24 0.34 0.47 0.71 0.91 1.04 1.21 1.34 1.22 1.19 1.06 0.78 0.63 0.60 0.65 0.71 0.75 0.81 0.86 0.83 0.74
0.55 0.59 0.62 0.58 0.53 0.48 0.44 0.42 0.41 0.38 0.33 0.27 0.22 0.20 0.18 0.17 0.17 0.17 0.19 0.23 0.24 0.23 0.24 0.30 0.36 0.52 0.77 0.97 1.12 1.37 1.44 1.31 1.32 1.20 0.94 0.74 0.68 0.68 0.72 0.78 0.83 0.90 0.85
0.57 0.60 0.63 0.62 0.56 0.52 0.49 0.46 0.43 0.40 0.36 0.30 0.25 0.22 0.19 0.17 0.15 0.14 0.14 0.17 0.24 0.27 0.26 0.27 0.31 0.39 0.60 0.84 1.08 1.29 1.68 1.58 1.47 1.51 1.44 1.12 0.86 0.76 0.76 0.80 0.85 0.92 0.95
0.59 0.60 0.62 0.61 0.63 0.63 0.58 0.54 0.48 0.43 0.38 0.34 0.30 0.26 0.21 0.18 0.17 0.16 0.14 0.13 0.16 0.23 0.28 0.29 0.31 0.31 0.42 0.63 0.89 1.15 1.61 1.94 1.76 1.64 1.68 1.59 1.25 0.97 0.86 0.87 0.92 0.96 1.02
0.63 0.58 0.58 0.59 0.60 0.61 0.59 0.55 0.50 0.43 0.39 0.36 0.35 0.32 0.26 0.21 0.19 0.17 0.15 0.14 0.14 0.16 0.24 0.30 0.32 0.28 0.28 0.38 0.59 0.95 1.32 1.77 2.01 1.89 1.81 1.83 1.69 1.38 1.13 1.01 1.00 1.08 1.11
0.73 0.66 0.61 0.59 0.58 0.56 0.52 0.49 0.50 0.49 0.45 0.43 0.46 0.43 0.37 0.30 0.25 0.21 0.18 0.15 0.13 0.13 0.17 0.27 0.34 0.32 0.27 0.28 0.33 0.51 0.90 1.41 1.87 2.10 2.10 2.02 1.99 1.80 1.51 1.29 1.17 1.22 1.29
0.82 0.77 0.66 0.64 0.62 0.58 0.54 0.50 0.49 0.51 0.50 0.49 0.51 0.53 0.47 0.42 0.34 0.25 0.22 0.19 0.15 0.14 0.16 0.21 0.30 0.35 0.34 0.28 0.22 0.27 0.46 0.90 1.46 1.95 2.22 2.28 2.24 2.17 1.91 1.63 1.41 1.37 1.46
0.82 0.85 0.77 0.66 0.65 0.63 0.59 0.54 0.49 0.49 0.51 0.48 0.48 0.64 0.67 0.47 0.30 0.23 0.21 0.20 0.19 0.17 0.16 0.19 0.26 0.32 0.37 0.36 0.29 0.26 0.29 0.50 0.96 1.55 2.04 2.33 2.43 2.50 2.37 1.98 1.69 1.53 1.56
0.81 0.80 0.82 0.78 0.70 0.66 0.61 0.57 0.53 0.51 0.54 0.56 0.52 0.52 0.56 0.54 0.53 0.36 0.21 0.20 0.21 0.21 0.19 0.18 0.22 0.27 0.33 0.39 0.40 0.38 0.36 0.38 0.63 1.03 1.58 2.14 2.51 2.77 2.92 2.52 2.04 1.79 1.71
0.81 0.81 0.78 0.81 0.78 0.71 0.64 0.61 0.61 0.60 0.61 0.62 0.58 0.52 0.48 0.43 0.44 0.52 0.35 0.23 0.24 0.24 0.23 0.23 0.23 0.26 0.30 0.36 0.41 0.42 0.46 0.44 0.57 0.82 1.15 1.73 2.30 2.84 3.31 3.16 2.48 1.99 1.77
0.84 0.79 0.78 0.77 0.77 0.73 0.65 0.61 0.61 0.64 0.66 0.63 0.59 0.56 0.57 0.55 0.46 0.50 0.45 0.30 0.28 0.26 0.27 0.29 0.28 0.28 0.30 0.35 0.38 0.46 0.49 0.50 0.54 0.66 0.82 1.21 1.80 2.36 3.10 3.40 2.89 2.24 1.85
0.91 0.83 0.78 0.75 0.72 0.71 0.69 0.66 0.66 0.64 0.63 0.67 0.67 0.61 0.56 0.52 0.49 0.54 0.57 0.46 0.40 0.32 0.31 0.33 0.31 0.31 0.34 0.36 0.38 0.43 0.44 0.48 0.53 0.61 0.63 0.74 1.12 1.74 2.49 3.32 3.51 2.80 2.20
0.84 0.84 0.84 0.78 0.70 0.67 0.68 0.71 0.70 0.67 0.66 0.68 0.66 0.64 0.60 0.52 0.53 0.59 0.66 0.72 0.67 0.46 0.37 0.33 0.30 0.30 0.32 0.36 0.39 0.43 0.40 0.45 0.50 0.53 0.54 0.57 0.68 1.03 1.68 2.63 3.60 3.67 2.92
0.84 0.89 0.89 0.87 0.80 0.74 0.70 0.69 0.70 0.69 0.72 0.70 0.69 0.68 0.70 0.62 0.59 0.60 0.62 0.74 0.94 0.78 0.46 0.33 0.32 0.33 0.34 0.38 0.42 0.39 0.37 0.39 0.43 0.48 0.52 0.52 0.57 0.71 1.02 1.63 2.59 3.59 3.77
0.82 0.93 0.95 0.89 0.89 0.84 0.78 0.74 0.71 0.69 0.73 0.74 0.74 0.76 0.76 0.75 0.73 0.67 0.67 0.70 0.80 0.88 0.64 0.33 0.30 0.32 0.39 0.44 0.49 0.42 0.41 0.46 0.43 0.43 0.45 0.49 0.53 0.64 0.83 1.13 1.71 2.60 3.46
0.77 0.84 0.95 0.95 0.93 0.91 0.87 0.84 0.81 0.79 0.78 0.78 0.80 0.85 0.84 0.84 0.89 0.84 0.78 0.73 0.72 0.78 0.75 0.38 0.29 0.31 0.43 0.51 0.52 0.48 0.48 0.45 0.38 0.38 0.41 0.45 0.51 0.58 0.73 0.94 1.25 1.83 2.66
0.77 0.80 0.89 1.00 1.00 0.97 0.92 0.90 0.90 0.94 0.99 0.95 0.88 0.88 0.89 0.90 0.93 0.93 0.92 0.83 0.72 0.65 0.67 0.52 0.35 0.36 0.42 0.52 0.57 0.54 0.50 0.46 0.40 0.39 0.41 0.46 0.50 0.57 0.67 0.84 1.05 1.37 1.98
0.81 0.80 0.88 1.01 1.07 1.08 1.04 0.95 0.94 0.99 1.09 1.15 1.13 1.10 1.01 0.98 1.00 0.96 0.97 0.93 0.82 0.70 0.64 0.62 0.46 0.38 0.42 0.50 0.62 0.63 0.55 0.50 0.45 0.43 0.42 0.45 0.48 0.52 0.60 0.72 0.89 1.11 1.39
0.83 0.83 0.83 0.91 1.01 1.11 1.20 1.21 1.20 1.14 1.15 1.19 1.22 1.23 1.19 1.18 1.13 1.07 1.06 1.01 0.96 0.93 0.84 0.81 0.68 0.53 0.49 0.52 0.67 0.76 0.69 0.57 0.51 0.47 0.48 0.46 0.49 0.52 0.52 0.53 0.59 0.76 1.00
0.85 0.84 0.84 0.82 0.88 1.13 1.50 1.49 1.40 1.32 1.19 1.10 1.05 1.06 1.13 1.25 1.29 1.35 1.38 1.28 1.23 1.28 1.21 1.12 0.95 0.78 0.65 0.68 0.77 0.81 0.88 0.77 0.64 0.58 0.56 0.48 0.46 0.44 0.41 0.42 0.47 0.59 0.77
0.96 0.91 0.87 0.82 0.84 1.04 1.46 1.51 1.24 1.03 0.91 0.89 0.89 0.84 0.86 1.04 1.13 1.23 1.35 1.35 1.39 1.53 1.57 1.47 1.24 1.02 0.76 0.70 0.77 0.93 1.07 1.13 0.98 0.67 0.69 0.66 0.55 0.52 0.42 0.36 0.39 0.48 0.63
0.98 0.97 0.89 0.81 0.75 0.82 1.20 1.29 1.08 0.82 0.71 0.68 0.70 0.70 0.72 0.80 0.93 0.92 1.05 1.11 1.18 1.33 1.51 1.58 1.51 1.15 0.88 0.73 0.89 1.07 1.11 1.18 1.06 0.87 0.94 1.03 0.81 0.66 0.51 0.47 0.50 0.49 0.56
1.01 0.95 0.90 0.83 0.78 0.73 1.04 1.20 1.05 0.76 0.65 0.59 0.58 0.57 0.56 0.62 0.75 0.89 0.98 0.97 0.93 1.02 1.29 1.48 1.60 1.40 1.15 1.01 1.15 1.40 1.52 1.52 1.32 1.13 1.12 1.31 1.08 0.87 0.74 0.64 0.57 0.51 0.53
0.97 0.94 0.87 0.80 0.78 0.75 0.93 1.23 1.17 0.81 0.67 0.58 0.56 0.56 0.51 0.49 0.70 0.90 0.91 0.85 0.76 0.79 0.96 1.23 1.42 1.46 1.46 1.51 1.60 1.86 2.02 1.97 1.80 1.47 1.29 1.37 1.35 1.21 1.05 0.92 0.74 0.60 0.53
0.92 0.92 0.90 0.82 0.76 0.72 0.85 1.20 1.35 0.91 0.71 0.62 0.57 0.55 0.61 0.63 0.77 0.83 0.79 0.82 0.84 0.75 0.73 0.81 0.90 0.98 1.06 1.16 1.41 1.66 1.83 1.92 1.90 1.86 1.49 1.37 1.52 1.59 1.68 1.31 0.94 0.64 0.54